Home   Weather   Maripasoula   Past weeks
Flag for French Guiana

Past Weather in Maripasoula, French Guiana — Yesterday and Last 2 Weeks

Now
90 °F

Passing clouds.


Feels Like: 98 °F
Forecast: 90 / 72 °F
Wind: 7 mph from East

Location: Cayenne / Rochambeau

Current Time: Aug 24, 2019 at 12:47:03 pm

Latest Report: Aug 24, 2019 at 12:00 pm


Visibility: N/A

Pressure: 29.98 "Hg

Humidity: 59%

Dew Point: 73 °F

Location of MaripasoulaLocation

Past Weather in Maripasoula — Graph

°F

Maripasoula Temperature Yesterday

Maximum temperature yesterday: 90 °F (at 11:30 am)
Minimum temperature yesterday: 72 °F (at 4:30 am)
Average temperature yesterday: 80 °F

High & Low Weather Summary for the Past Weeks

 TemperatureHumidityPressure
High90 °F (Aug 16, 1:00 pm)100% (Aug 9, 11:00 pm)30.04 "Hg (Aug 9, 11:00 pm)
Low72 °F (Aug 11, 3:00 am)49% (Aug 22, 2:00 pm)29.83 "Hg (Aug 12, 4:00 pm)
Average79 °F85%29.95 "Hg
* Reported Aug 9 12:00 pm — Aug 24 12:00 pm, Maripasoula. Weather by CustomWeather, © 2019

Note: Actual official high and low records may vary slightly from our data, if they occured in-between our weather recording intervals... More about our weather records

Advertising

Maripasoula Weather History for the Previous 24 Hours

Scroll right to see more
 ConditionsComfort  
Time TempWeatherWind HumidityBarometerVisibility
12:00 pm
Sat, Aug 24
90 °FPassing clouds.7 mph59%29.98 "HgN/A
11:30 am88 °FPassing clouds.8 mph62%29.98 "HgN/A
11:00 am88 °FBroken clouds.6 mph66%29.98 "HgN/A
10:30 am88 °FScattered clouds.3 mph62%30.01 "HgN/A
10:00 am86 °FPartly sunny.3 mph75%30.01 "HgN/A
9:30 am84 °FSunny.2 mph74%30.01 "Hg10 mi
9:00 am81 °FSunny.2 mph84%30.01 "Hg10 mi
8:30 am77 °FPassing clouds.2 mph94%30.01 "HgN/A
8:00 am73 °FScattered clouds.No wind100%30.01 "HgN/A
7:30 am73 °FSunny.No wind94%29.98 "Hg10 mi
7:00 am73 °FSunny.No wind94%29.98 "Hg10 mi
6:30 am73 °FScattered clouds.No wind94%29.98 "HgN/A
6:00 am73 °FPassing clouds.No wind94%29.98 "HgN/A
5:30 am73 °FPartly cloudy.No wind94%29.95 "HgN/A
5:00 am72 °FPassing clouds.No wind100%29.95 "HgN/A
4:30 am72 °FClear.No wind100%29.92 "Hg10 mi
4:00 am72 °FClear.No wind100%29.92 "Hg10 mi
3:30 am73 °FClear.No wind94%29.92 "Hg10 mi
3:00 am73 °FClear.No wind94%29.92 "Hg10 mi
2:30 am73 °FClear.No wind94%29.92 "Hg10 mi
2:00 am73 °FClear.No wind100%29.92 "Hg10 mi
1:30 am75 °FClear.No wind94%29.95 "Hg10 mi
1:00 am75 °FClear.No wind94%29.95 "Hg10 mi
12:30 am75 °FClear.2 mph94%29.95 "Hg10 mi
12:00 am75 °FClear.No wind94%29.98 "Hg10 mi
11:30 pm
Fri, Aug 23
75 °FClear.No wind94%29.98 "Hg10 mi
11:00 pm75 °FClear.No wind94%29.98 "Hg10 mi
10:30 pm75 °FClear.No wind94%29.98 "Hg10 mi
10:00 pm77 °FClear.No wind89%29.98 "Hg10 mi
9:30 pm77 °FClear.No wind94%29.98 "Hg10 mi
9:00 pm77 °FClear.No wind94%29.98 "Hg10 mi
8:30 pm77 °FClear.No wind89%29.95 "Hg10 mi
8:00 pm79 °FClear.2 mph89%29.95 "Hg10 mi
7:30 pm81 °FClear.3 mph84%29.95 "Hg10 mi
7:00 pm82 °FClear.3 mph74%29.95 "Hg10 mi
6:30 pm84 °FSunny.7 mph70%29.95 "Hg10 mi
6:00 pm84 °FSunny.7 mph70%29.95 "Hg10 mi
5:30 pm86 °FSunny.9 mph66%29.95 "Hg10 mi
5:00 pm88 °FSunny.10 mph62%29.92 "Hg10 mi
4:30 pm88 °FSunny.10 mph62%29.92 "Hg10 mi
4:00 pm90 °FHot.12 mph59%29.92 "HgN/A
3:30 pm90 °FPassing clouds.12 mph59%29.95 "HgN/A
3:00 pm90 °FHot.10 mph59%29.95 "HgN/A
2:30 pm90 °FScattered clouds.12 mph55%29.95 "HgN/A
2:00 pm90 °FPartly sunny.10 mph55%29.95 "HgN/A
1:30 pm90 °FScattered clouds.9 mph59%29.98 "HgN/A
1:00 pm90 °FPassing clouds.6 mph59%29.98 "HgN/A
12:30 pm90 °FPassing clouds.7 mph52%29.98 "HgN/A
12:00 pm90 °FPassing clouds.6 mph52%30.01 "HgN/A
Weather by CustomWeather, © 2019

See weather overview